ROA2038 TFFF-SVMI

Flight info

Callsign ROA2038
Flight time 1h 19m
Altitude 32000
Route SOMON2R SOMON DCT KOMPU NETSI1
Aircraft B77W/H-SDE1E2E3FGHIJ2J3J4J5M1RWXY/LB1D1

Departure

Time 2026-04-27 16:02
Airport Martinique Aimé Césaire International Airport (TFFF)

Arrival

Time 2026-04-27 17:21
Airport Maiquetía Simón Bolívar International Airport (SVMI)
Time Latitude Longitude Altitude Speed Heading
2026-04-27 15:10 14.59464 -61.00111 22 ft 0 kts 32°
2026-04-27 15:49 14.59466 -61.00110 22 ft 0 kts 32°
2026-04-27 15:52 14.59463 -61.00112 27 ft 3 kts 32°
2026-04-27 15:52 14.59430 -61.00133 27 ft 8 kts 32°
2026-04-27 15:53 14.59400 -61.00156 23 ft 0 kts 61°
2026-04-27 15:55 14.59402 -61.00128 23 ft 7 kts 98°
2026-04-27 15:56 14.59378 -61.00080 23 ft 8 kts 124°
2026-04-27 15:56 14.59341 -61.00052 24 ft 3 kts 159°
2026-04-27 15:56 14.59331 -61.00048 24 ft 0 kts 160°
2026-04-27 15:56 14.59315 -61.00043 24 ft 6 kts 163°
2026-04-27 15:57 14.59249 -61.00024 28 ft 11 kts 167°
2026-04-27 15:57 14.59173 -61.00020 23 ft 11 kts 196°
2026-04-27 15:57 14.59143 -61.00093 23 ft 13 kts 262°
2026-04-27 15:57 14.59128 -61.00187 24 ft 14 kts 260°
2026-04-27 15:58 14.59112 -61.00283 21 ft 14 kts 260°
2026-04-27 15:58 14.59097 -61.00377 21 ft 14 kts 259°
2026-04-27 15:58 14.59078 -61.00486 20 ft 17 kts 259°
2026-04-27 15:58 14.59055 -61.00624 24 ft 21 kts 260°
2026-04-27 15:59 14.59028 -61.00782 27 ft 24 kts 260°
2026-04-27 15:59 14.58997 -61.00961 27 ft 26 kts 259°
2026-04-27 15:59 14.58965 -61.01142 29 ft 26 kts 260°
2026-04-27 15:59 14.58935 -61.01324 29 ft 26 kts 260°
2026-04-27 16:00 14.58904 -61.01506 27 ft 26 kts 260°
2026-04-27 16:00 14.58883 -61.01626 27 ft 23 kts 259°
2026-04-27 16:00 14.58895 -61.01779 22 ft 10 kts 294°
2026-04-27 16:00 14.58879 -61.01815 23 ft 4 kts 196°
2026-04-27 16:01 14.58857 -61.01799 23 ft 5 kts 95°
2026-04-27 16:01 14.58861 -61.01762 25 ft 5 kts 81°
2026-04-27 16:01 14.58862 -61.01757 21 ft 0 kts 81°
2026-04-27 16:01 14.58870 -61.01710 24 ft 37 kts 81°
2026-04-27 16:02 14.58989 -61.01009 28 ft 161 kts 79°
2026-04-27 16:02 14.59239 -60.99570 434 ft 236 kts 80°
2026-04-27 16:02 14.59560 -60.97908 2306 ft 234 kts 80°
2026-04-27 16:02 14.59850 -60.96227 3924 ft 242 kts 82°
2026-04-27 16:03 14.60136 -60.94477 4958 ft 252 kts 82°
2026-04-27 16:03 14.60433 -60.92665 6062 ft 259 kts 81°
2026-04-27 16:03 14.60744 -60.90813 7139 ft 265 kts 81°
2026-04-27 16:03 14.60760 -60.88911 7999 ft 272 kts 105°
2026-04-27 16:04 14.59890 -60.87167 8953 ft 281 kts 130°
2026-04-27 16:04 14.58316 -60.85930 9848 ft 291 kts 155°
2026-04-27 16:04 14.56314 -60.85478 10706 ft 306 kts 178°
2026-04-27 16:04 14.54126 -60.85845 11063 ft 337 kts 198°
2026-04-27 16:05 14.51858 -60.86830 11301 ft 368 kts 204°
2026-04-27 16:05 14.49486 -60.87974 11970 ft 382 kts 204°
2026-04-27 16:05 14.47189 -60.89359 12662 ft 388 kts 220°
2026-04-27 16:05 14.45470 -60.91527 13591 ft 394 kts 240°
2026-04-27 16:06 14.44369 -60.94104 14528 ft 395 kts 248°
2026-04-27 16:06 14.43362 -60.96768 15377 ft 401 kts 248°
2026-04-27 16:06 14.42360 -60.99465 16329 ft 403 kts 248°
2026-04-27 16:06 14.41352 -61.02178 17250 ft 407 kts 248°
2026-04-27 16:07 14.40340 -61.04884 18116 ft 411 kts 248°
2026-04-27 16:07 14.39299 -61.07644 18947 ft 415 kts 248°
2026-04-27 16:07 14.38238 -61.10436 19712 ft 420 kts 247°
2026-04-27 16:07 14.37159 -61.13263 20426 ft 426 kts 247°
2026-04-27 16:08 14.36066 -61.16117 21136 ft 430 kts 247°
2026-04-27 16:08 14.34961 -61.19001 21822 ft 434 kts 246°
2026-04-27 16:08 14.33841 -61.21914 22457 ft 439 kts 246°
2026-04-27 16:08 14.32711 -61.24854 23078 ft 444 kts 246°
2026-04-27 16:09 14.31568 -61.27828 23669 ft 448 kts 246°
2026-04-27 16:09 14.29250 -61.33858 24785 ft 456 kts 246°
2026-04-27 16:09 14.28075 -61.36913 25343 ft 459 kts 246°
2026-04-27 16:10 14.25711 -61.43057 26462 ft 464 kts 246°
2026-04-27 16:10 14.23313 -61.49282 27452 ft 470 kts 246°
2026-04-27 16:11 14.22101 -61.52424 27945 ft 472 kts 246°
2026-04-27 16:11 14.19679 -61.58708 28948 ft 475 kts 247°
2026-04-27 16:12 14.17261 -61.64974 30483 ft 466 kts 247°
2026-04-27 16:12 14.16066 -61.68068 31139 ft 464 kts 247°
2026-04-27 16:12 14.13044 -61.73920 32096 ft 466 kts 236°
2026-04-27 16:13 14.11196 -61.76687 32063 ft 469 kts 234°
2026-04-27 16:13 14.05608 -61.84876 32070 ft 463 kts 234°
2026-04-27 16:14 13.98394 -61.95859 32074 ft 463 kts 235°
2026-04-27 16:15 13.91225 -62.06856 32075 ft 465 kts 235°
2026-04-27 16:16 13.84002 -62.17905 32074 ft 465 kts 235°
2026-04-27 16:17 13.76772 -62.28950 32073 ft 465 kts 235°
2026-04-27 16:18 13.69536 -62.39989 32074 ft 465 kts 235°
2026-04-27 16:19 13.65924 -62.45496 32074 ft 464 kts 235°
2026-04-27 16:20 13.58716 -62.56473 32074 ft 464 kts 235°
2026-04-27 16:21 13.53289 -62.64730 32053 ft 465 kts 235°
2026-04-27 16:22 13.46650 -62.74817 32044 ft 465 kts 235°
2026-04-27 16:22 13.41206 -62.83082 32046 ft 466 kts 235°
2026-04-27 16:23 13.35752 -62.91351 32047 ft 466 kts 235°
2026-04-27 16:24 13.32114 -62.96868 32046 ft 467 kts 235°
2026-04-27 16:25 13.24830 -63.07899 32047 ft 466 kts 234°
2026-04-27 16:26 13.17543 -63.18913 32046 ft 466 kts 234°
2026-04-27 16:27 13.10283 -63.29881 32046 ft 466 kts 234°
2026-04-27 16:28 13.01164 -63.43637 32047 ft 466 kts 234°
2026-04-27 16:29 12.92029 -63.57400 32046 ft 467 kts 234°
2026-04-27 16:30 12.84732 -63.68368 32036 ft 467 kts 234°
2026-04-27 16:31 12.75526 -63.82084 32038 ft 468 kts 234°
2026-04-27 16:32 12.69992 -63.90330 32037 ft 468 kts 234°
2026-04-27 16:33 12.64484 -63.98528 32038 ft 468 kts 234°
2026-04-27 16:33 12.60792 -64.04021 32042 ft 472 kts 234°
2026-04-27 16:34 12.57006 -64.09646 32047 ft 484 kts 234°
2026-04-27 16:34 12.53201 -64.15301 32034 ft 484 kts 234°
2026-04-27 16:35 12.49324 -64.21059 32044 ft 496 kts 234°
2026-04-27 16:36 12.43451 -64.29775 32029 ft 498 kts 234°
2026-04-27 16:36 12.39520 -64.35603 32026 ft 497 kts 234°
2026-04-27 16:37 12.35585 -64.41435 32028 ft 496 kts 234°
2026-04-27 16:37 12.31629 -64.47228 32028 ft 496 kts 234°
2026-04-27 16:38 12.27659 -64.53000 32027 ft 496 kts 234°
2026-04-27 16:38 12.23691 -64.58774 32028 ft 496 kts 234°
2026-04-27 16:39 12.19750 -64.64514 32019 ft 496 kts 234°
2026-04-27 16:39 12.15780 -64.70297 32018 ft 497 kts 234°
2026-04-27 16:40 12.11808 -64.76078 32002 ft 497 kts 234°
2026-04-27 16:40 12.07829 -64.81865 32000 ft 497 kts 234°
2026-04-27 16:41 12.03848 -64.87648 32000 ft 498 kts 234°
2026-04-27 16:41 11.99862 -64.93441 32001 ft 498 kts 234°
2026-04-27 16:42 11.95900 -64.99194 31997 ft 499 kts 234°
2026-04-27 16:42 11.91905 -65.04991 32002 ft 500 kts 234°
2026-04-27 16:43 11.87902 -65.10797 32000 ft 501 kts 234°
2026-04-27 16:43 11.83890 -65.16612 32000 ft 501 kts 234°
2026-04-27 16:44 11.79870 -65.22432 32005 ft 501 kts 234°
2026-04-27 16:44 11.75851 -65.28252 31997 ft 501 kts 234°
2026-04-27 16:45 11.71832 -65.34071 32002 ft 502 kts 234°
2026-04-27 16:45 11.67832 -65.39853 32000 ft 502 kts 234°
2026-04-27 16:46 11.63806 -65.45671 32003 ft 501 kts 234°
2026-04-27 16:46 11.61803 -65.48563 31864 ft 495 kts 234°
2026-04-27 16:46 11.59831 -65.51409 31178 ft 490 kts 234°
2026-04-27 16:46 11.57862 -65.54252 30394 ft 487 kts 234°
2026-04-27 16:47 11.55917 -65.57059 29772 ft 481 kts 234°
2026-04-27 16:47 11.53997 -65.59833 29142 ft 475 kts 233°
2026-04-27 16:47 11.52097 -65.62573 28519 ft 470 kts 233°
2026-04-27 16:47 11.50241 -65.65250 27927 ft 466 kts 233°
2026-04-27 16:48 11.48379 -65.67935 27317 ft 461 kts 233°
2026-04-27 16:48 11.46534 -65.70594 26714 ft 456 kts 233°
2026-04-27 16:48 11.44714 -65.73216 26127 ft 451 kts 232°
2026-04-27 16:49 11.41134 -65.78379 24966 ft 441 kts 232°
2026-04-27 16:49 11.39369 -65.80921 24397 ft 437 kts 232°
2026-04-27 16:49 11.37629 -65.83447 23834 ft 433 kts 233°
2026-04-27 16:49 11.36083 -65.86068 23259 ft 430 kts 238°
2026-04-27 16:50 11.34636 -65.88723 22720 ft 426 kts 238°
2026-04-27 16:50 11.33201 -65.91348 22174 ft 422 kts 238°
2026-04-27 16:50 11.31775 -65.93946 21642 ft 418 kts 237°
2026-04-27 16:50 11.30358 -65.96519 21103 ft 414 kts 237°
2026-04-27 16:51 11.28953 -65.99063 20582 ft 411 kts 237°
2026-04-27 16:51 11.27554 -66.01592 20046 ft 408 kts 237°
2026-04-27 16:51 11.26166 -66.04098 19528 ft 404 kts 237°
2026-04-27 16:51 11.24790 -66.06582 18995 ft 401 kts 237°
2026-04-27 16:52 11.23427 -66.09044 18486 ft 398 kts 237°
2026-04-27 16:52 11.22071 -66.11489 17955 ft 395 kts 237°
2026-04-27 16:52 11.20739 -66.13893 17450 ft 392 kts 237°
2026-04-27 16:52 11.19402 -66.16305 16928 ft 390 kts 237°
2026-04-27 16:53 11.18075 -66.18699 16419 ft 387 kts 237°
2026-04-27 16:53 11.16753 -66.21084 15895 ft 385 kts 237°
2026-04-27 16:53 11.15437 -66.23456 15402 ft 383 kts 237°
2026-04-27 16:53 11.14129 -66.25813 14883 ft 382 kts 237°
2026-04-27 16:54 11.12824 -66.28165 14380 ft 380 kts 237°
2026-04-27 16:54 11.11528 -66.30503 13871 ft 378 kts 237°
2026-04-27 16:54 11.10237 -66.32829 13368 ft 377 kts 237°
2026-04-27 16:54 11.08948 -66.35150 12866 ft 375 kts 237°
2026-04-27 16:55 11.07683 -66.37432 12369 ft 374 kts 237°
2026-04-27 16:55 11.06401 -66.39737 11870 ft 373 kts 237°
2026-04-27 16:55 11.05122 -66.42035 11371 ft 373 kts 237°
2026-04-27 16:55 11.03842 -66.44333 10868 ft 372 kts 237°
2026-04-27 16:56 11.02575 -66.46612 10607 ft 365 kts 237°
2026-04-27 16:56 11.01343 -66.48835 10444 ft 356 kts 237°
2026-04-27 16:56 11.00145 -66.50996 10274 ft 346 kts 237°
2026-04-27 16:56 10.98996 -66.53063 10113 ft 324 kts 237°
2026-04-27 16:57 10.97899 -66.55035 9993 ft 316 kts 237°
2026-04-27 16:57 10.96728 -66.56881 9685 ft 304 kts 224°
2026-04-27 16:57 10.95145 -66.58211 9434 ft 291 kts 216°
2026-04-27 16:57 10.93522 -66.59410 9233 ft 285 kts 217°
2026-04-27 16:58 10.91921 -66.60610 8709 ft 291 kts 217°
2026-04-27 16:58 10.90294 -66.61838 8370 ft 287 kts 217°
2026-04-27 16:58 10.88732 -66.63023 7987 ft 275 kts 217°
2026-04-27 16:58 10.87223 -66.64172 7536 ft 266 kts 217°
2026-04-27 16:59 10.85766 -66.65285 7230 ft 267 kts 217°
2026-04-27 16:59 10.84274 -66.66424 6892 ft 268 kts 217°
2026-04-27 16:59 10.82797 -66.67554 6560 ft 265 kts 217°
2026-04-27 16:59 10.81322 -66.68683 6243 ft 265 kts 217°
2026-04-27 17:00 10.78880 -66.70552 5697 ft 263 kts 217°
2026-04-27 17:00 10.76938 -66.72039 5272 ft 261 kts 217°
2026-04-27 17:00 10.75490 -66.73148 4950 ft 260 kts 217°
2026-04-27 17:01 10.74043 -66.74255 4623 ft 260 kts 217°
2026-04-27 17:01 10.72599 -66.75360 4313 ft 259 kts 217°
2026-04-27 17:01 10.71170 -66.76454 3979 ft 253 kts 217°
2026-04-27 17:01 10.69768 -66.77527 3694 ft 252 kts 217°
2026-04-27 17:02 10.68383 -66.78586 3560 ft 242 kts 217°
2026-04-27 17:02 10.67078 -66.79583 3412 ft 234 kts 217°
2026-04-27 17:02 10.65914 -66.80648 3265 ft 218 kts 237°
2026-04-27 17:02 10.65334 -66.81996 3194 ft 199 kts 249°
2026-04-27 17:03 10.64840 -66.83262 3057 ft 187 kts 248°
2026-04-27 17:03 10.64370 -66.84440 2864 ft 178 kts 248°
2026-04-27 17:03 10.63904 -66.85612 2666 ft 178 kts 248°
2026-04-27 17:03 10.63447 -66.86764 2428 ft 172 kts 248°
2026-04-27 17:04 10.62999 -66.87893 2203 ft 173 kts 248°
2026-04-27 17:04 10.62549 -66.89029 1966 ft 173 kts 248°
2026-04-27 17:04 10.62101 -66.90163 1735 ft 172 kts 248°
2026-04-27 17:04 10.61703 -66.91296 1647 ft 171 kts 256°
2026-04-27 17:05 10.61450 -66.92500 1372 ft 177 kts 259°
2026-04-27 17:05 10.61218 -66.93671 1080 ft 157 kts 258°
2026-04-27 17:05 10.60966 -66.94697 878 ft 145 kts 255°
2026-04-27 17:05 10.60795 -66.95358 759 ft 142 kts 255°
2026-04-27 17:06 10.60491 -66.96662 549 ft 144 kts 258°
2026-04-27 17:06 10.60341 -66.97688 462 ft 154 kts 265°
2026-04-27 17:06 10.60277 -66.98855 785 ft 173 kts 268°
2026-04-27 17:06 10.60208 -67.00040 990 ft 164 kts 266°
2026-04-27 17:07 10.60130 -67.01223 979 ft 174 kts 268°
2026-04-27 17:07 10.60490 -67.02446 1210 ft 201 kts 311°
2026-04-27 17:07 10.61790 -67.03120 1738 ft 224 kts 355°
2026-04-27 17:07 10.63381 -67.02843 1889 ft 239 kts 18°
2026-04-27 17:08 10.65027 -67.02552 1767 ft 245 kts
2026-04-27 17:08 10.66750 -67.02646 1739 ft 251 kts 353°
2026-04-27 17:08 10.68505 -67.02883 1746 ft 256 kts 351°
2026-04-27 17:08 10.70179 -67.03360 1732 ft 253 kts 336°
2026-04-27 17:09 10.71854 -67.03927 1745 ft 258 kts 348°
2026-04-27 17:09 10.73645 -67.04244 1743 ft 261 kts 350°
2026-04-27 17:09 10.75423 -67.04546 1733 ft 257 kts 349°
2026-04-27 17:09 10.77173 -67.04882 1724 ft 254 kts 348°
2026-04-27 17:10 10.78903 -67.05247 1730 ft 255 kts 347°
2026-04-27 17:10 10.80644 -67.05632 1737 ft 256 kts 347°
2026-04-27 17:10 10.82387 -67.06024 1746 ft 257 kts 347°
2026-04-27 17:10 10.84129 -67.06418 1739 ft 255 kts 347°
2026-04-27 17:11 10.85286 -67.06554 1723 ft 252 kts
2026-04-27 17:11 10.88287 -67.04103 1745 ft 256 kts 72°
2026-04-27 17:11 10.88527 -67.02316 1737 ft 255 kts 89°
2026-04-27 17:12 10.88594 -66.99280 1748 ft 261 kts 88°
2026-04-27 17:12 10.88648 -66.97425 1742 ft 264 kts 88°
2026-04-27 17:12 10.88705 -66.95572 1732 ft 260 kts 88°
2026-04-27 17:13 10.88762 -66.93744 1722 ft 257 kts 88°
2026-04-27 17:13 10.88614 -66.91960 1721 ft 255 kts 110°
2026-04-27 17:13 10.87748 -66.90386 1746 ft 258 kts 123°
2026-04-27 17:13 10.86775 -66.88827 1742 ft 262 kts 122°
2026-04-27 17:14 10.85822 -66.87255 1733 ft 260 kts 122°
2026-04-27 17:14 10.84878 -66.85695 1725 ft 258 kts 122°
2026-04-27 17:14 10.83942 -66.84147 1725 ft 256 kts 122°
2026-04-27 17:14 10.83012 -66.82611 1727 ft 254 kts 122°
2026-04-27 17:15 10.82088 -66.81081 1728 ft 254 kts 122°
2026-04-27 17:15 10.81162 -66.79551 1728 ft 254 kts 122°
2026-04-27 17:15 10.80076 -66.78160 1731 ft 255 kts 143°
2026-04-27 17:15 10.78425 -66.77508 1746 ft 259 kts 178°
2026-04-27 17:16 10.76669 -66.77765 1741 ft 255 kts 195°
2026-04-27 17:16 10.74934 -66.78214 1748 ft 260 kts 194°
2026-04-27 17:16 10.73205 -66.78644 1736 ft 258 kts 194°
2026-04-27 17:16 10.71466 -66.79077 1726 ft 256 kts 194°
2026-04-27 17:17 10.69742 -66.79507 1725 ft 254 kts 194°
2026-04-27 17:17 10.68018 -66.79936 1731 ft 255 kts 194°
2026-04-27 17:17 10.66396 -66.80580 1725 ft 251 kts 218°
2026-04-27 17:18 10.64666 -66.83651 1745 ft 257 kts 249°
2026-04-27 17:18 10.64006 -66.85332 1730 ft 252 kts 248°
2026-04-27 17:18 10.63367 -66.86950 1679 ft 240 kts 248°
2026-04-27 17:18 10.62763 -66.88477 1670 ft 225 kts 248°
2026-04-27 17:19 10.62202 -66.89896 1620 ft 207 kts 248°
2026-04-27 17:19 10.61727 -66.91182 1519 ft 183 kts 254°
2026-04-27 17:19 10.61462 -66.92395 1274 ft 168 kts 259°
2026-04-27 17:19 10.61250 -66.93479 1105 ft 145 kts 259°
2026-04-27 17:20 10.61002 -66.94482 988 ft 150 kts 252°
2026-04-27 17:20 10.60670 -66.95468 734 ft 144 kts 252°
2026-04-27 17:20 10.60422 -66.96428 534 ft 138 kts 260°
2026-04-27 17:20 10.60335 -66.97383 405 ft 137 kts 267°
2026-04-27 17:21 10.60303 -66.98356 316 ft 139 kts 268°
2026-04-27 17:21 10.60272 -66.99311 205 ft 124 kts 268°
2026-04-27 17:21 10.60252 -67.00010 229 ft 71 kts 268°
2026-04-27 17:21 10.60240 -67.00407 230 ft 36 kts 268°
2026-04-27 17:22 10.60233 -67.00605 229 ft 27 kts 267°
2026-04-27 17:22 10.60228 -67.00795 232 ft 27 kts 268°
2026-04-27 17:22 10.60222 -67.00985 238 ft 27 kts 268°
2026-04-27 17:22 10.60217 -67.01142 239 ft 17 kts 268°
2026-04-27 17:23 10.60215 -67.01216 241 ft 3 kts 268°
2026-04-27 17:23 10.60207 -67.01236 242 ft 3 kts 228°
2026-04-27 17:23 10.60185 -67.01242 243 ft 3 kts 188°
2026-04-27 17:23 10.60159 -67.01244 243 ft 4 kts 183°
2026-04-27 17:24 10.60132 -67.01245 245 ft 4 kts 179°
2026-04-27 17:24 10.60105 -67.01244 246 ft 4 kts 179°
2026-04-27 17:24 10.60072 -67.01244 246 ft 8 kts 179°
2026-04-27 17:24 10.60003 -67.01240 246 ft 8 kts 174°
2026-04-27 17:25 10.59945 -67.01234 246 ft 9 kts 174°
2026-04-27 17:25 10.59903 -67.01195 245 ft 9 kts 102°
2026-04-27 17:25 10.59900 -67.01121 244 ft 12 kts 89°
2026-04-27 17:25 10.59903 -67.01032 242 ft 14 kts 88°
2026-04-27 17:26 10.59905 -67.00961 241 ft 7 kts 88°
2026-04-27 17:26 10.59907 -67.00906 240 ft 9 kts 88°
2026-04-27 17:26 10.59909 -67.00839 239 ft 8 kts 88°
2026-04-27 17:26 10.59909 -67.00801 238 ft 3 kts 95°
2026-04-27 17:27 10.59889 -67.00788 238 ft 4 kts 159°
2026-04-27 17:27 10.59857 -67.00782 238 ft 5 kts 175°
2026-04-27 17:27 10.59833 -67.00781 238 ft 2 kts 176°
2026-04-27 17:27 10.59827 -67.00781 238 ft 0 kts 177°
2026-04-27 17:28 10.59825 -67.00781 238 ft 0 kts 177°